SCP
0 0 0 0 0 0 0 0 0 0 0 0 0 0 -0 0 0 0 0 0 -0 0 0 0 0 0 0 0 0 0 0 0 0 0 0 0 0 -0 -0 -0 -0 0 0 0 -0 -0 -0 -0 0
0 0 0 0 0 0 0 0 0 0 0 0 0 0 0 0 0 0 0 0 -0 0 0 0 0 0 0 0 0 0 0 0 0 0 0 0 -0 -0 -0 -0 -0 -0 -0 -0 0 0 0 0 0
0 0 0 0 0 0 0 0 0 0 0 0 0 0 0 0 0 0 0 0 0 0 0 0 0 0 0 0 0 0 0 0 0 0 0 -0 -0 -0 -0 -0 -0 -0 -0 -0 -0 0 0 -0 0
0 0 0 0 0 0 0 0 0 0 0 0 0 0 0 0 -0 -0 -0 -0 0 0 0 0 0 0 0 0 0 0 0 0 0 0 -0 -0 -0 -0 -0 -0 -0 -0 -0 -0 -0 -0 -0 -0 0
0 0 0 0 0 0 0 0 0 0 0 0 0 0 0 0 -0 -0 -0 0 -0 0 0 0 0 0 0 0 0 0 0 0 -0 -0 -0 -0 -0 -0 -0 -0 -0 -0 -0 -0 -0 -0 -0 -0 -0
0 0 0 0 0 0 0 0 0 0 0 0 0 0 0 0 0 0 0 0 0 0 0 0 0 0 0 0 0 0 0 0 -0 -0 -0 -0 -0 -0 -0 -0 -0 -0 -0 -0 -0 -0 -0 -0 -0
0 0 0 0 0 0 0 0 0 0 0 0 0 0 0 0 0 0 0 0 0 0 0 0 0 0 0 0 0 0 0 -0 -0 -0 0 -0 -0 -0 -0 -0 -0 -0 -0 -0 -0 -0 -0 -0 -0
0 0 0 0 0 0 0 0 0 0 0 0 0 0 0 0 0 0 0 0 0 0 0 0 0 0 0 0 0 0 0 0 0 0 0 0 -0 -0 -0 -0 -0 -0 -0 -0 -0 -0 -0 -0 0
0 0 0 0 0 0 0 0 0 0 0 0 0 0 0 0 0 0 0 0 0 0 0 0 0 0 0 0 0 0 0 0 0 0 -0 0 0 0 0 0 -0 -0 -0 -0 0 0 0 0 0
0 0 0 0 0 0 0 0 0 0 0 0 0 0 0 0 0 0 0 0 0 0 -0 0 0 0 0 0 0 0 0 0 0 0 0 0 0 0 0 0 0 0 0 0 0 0 0 0 0
0 0 0 0 0 0 0 0 0 0 0 0 0 0 0 0 0 0 0 0 0 0 0 -0 0 0 0 0 0 0 0 0 0 0 0 0 0 0 0 0 0 0 0 0 0 0 0 0 0
0 0 0 0 0 0 0 0 0 0 0 0 0 0 0 0 0 0 0 0 0 0 0 0 -0 0 0 0 0 0 0 0 0 0 0 0 0 0 0 0 0 0 0 0 0 0 0 0 0
0 0 0 0 0 0 0 0 0 0 0 0 0 0 0 0 0 0 0 0 0 0 0 0 0 0 0 0 0 0 0 0 0 0 0 0 0 0 0 0 0 0 0 0 0 0 0 0 0
0 0 0 0 0 0 0 0 0 0 0 0 0 0 0 0 0 0 0 0 0 0 0 0 0 0 0 0 0 0 0 0 0 0 0 0 0 0 0 0 0 0 0 0 0 0 0 0 0
0 0 0 0 0 0 0 0 0 0 0 0 0 0 0 0 0 0 0 0 0 0 0 0 -0 -0 0 0 0 0 0 0 0 0 0 0 0 0 0 0 0 0 0 0 0 0 0 0 0
0 0 0 0 0 0 0 0 0 0 0 0 0 0 0 0 0 0 0 0 0 0 0 0 0 0 0 0 0 0 0 0 0 0 0 0 0 0 0 0 0 0 0 0 0 0 0 0 0
0 0 0 0 0 0 0 0 0 0 0 0 0 0 0 0 0 0 0 0 0 0 0 0 0 0 0 0 0 0 0 0 0 0 0 0 0 0 0 0 0 0 0 0 0 0 0 0 0
0 0 0 0 0 0 0 0 0 0 0 0 0 0 0 0 0 0 0 0 0 0 0 0 0 0 0 0 0 0 0 0 0 0 0 0 0 0 0 0 0 0 0 0 0 0 0 0 0
0 0 0 0 0 0 0 0 0 0 0 0 0 0 0 0 0 0 0 0 0 0 0 0 0 0 0 0 0 0 0 0 0 0 0 0 0 0 0 0 0 0 0 0 0 0 0 0 0
0 0 0 0 0 0 0 0 0 0 0 0 0 0 0 0 0 0 0 0 0 0 0 0 0 0 0 0 0 0 0 0 0 0 0 0 0 0 0 0 0 0 0 0 0 0 0 0 0
0 0 0 0 0 0 0 0 0 0 0 0 0 0 0 0 0 0 0 0 0 0 0 0 0 0 0 0 0 0 0 0 0 0 0 0 0 0 0 0 0 0 0 0 0 0 0 0 0
0 0 0 0 0 0 0 0 0 0 0 0 0 0 0 0 0 0 0 0 0 0 0 0 0 0 0 0 0 0 0 0 0 0 0 0 0 0 0 0 0 0 0 0 0 0 0 0 0
0 0 0 0 0 0 0 0 0 0 0 0 0 0 0 0 0 0 0 0 0 0 0 0 0 0 0 0 0 0 0 0 0 0 0 0 0 0 0 0 0 0 0 0 0 0 0 0 0
0 0 0 0 0 0 0 0 0 0 0 0 0 0 0 0 0 0 0 0 0 0 0 0 0 0 0 0 0 0 0 0 0 0 0 0 0 0 0 0 0 0 0 0 0 0 0 0 0
0 0 0 0 0 0 0 0 0 0 0 0 0 0 0 0 0 0 0 0 0 0 0 0 0 0 0 0 0 0 0 0 0 0 0 0 0 0 0 0 0 0 0 0 0 0 0 0 0
0 0 0 0 0 0 0 0 0 0 0 0 0 0 0 0 0 0 0 0 0 0 0 0 0 0 0 0 0 0 0 0 0 0 0 0 0 0 0 0 0 0 0 0 0 0 0 0 0
0 0 0 0 0 0 0 0 0 0 0 0 0 0 0 0 0 0 0 0 0 0 0 0 0 0 0 0 0 0 0 0 0 0 0 0 0 0 0 0 0 0 0 0 0 0 0 0 0
0 0 0 0 0 0 0 0 0 0 0 0 0 0 0 0 0 0 0 0 0 0 0 0 0 0 0 0 0 0 0 0 0 0 0 0 0 0 0 0 0 0 0 0 0 0 0 0 0
0 0 0 0 0 0 0 0 0 0 0 0 0 0 0 0 0 0 0 0 0 0 0 0 0 0 0 0 0 0 0 0 0 0 0 0 0 0 0 0 0 0 0 0 0 0 0 0 0
0 0 0 0 0 0 0 0 0 0 0 0 0 0 0 0 0 0 0 0 0 0 0 0 0 0 0 0 0 0 0 0 0 0 0 0 0 0 0 0 0 0 0 0 0 0 0 0 0
Wind_Speed_500mb
4 3 3 3 7 9 3 5 5 2 6 14 15 13 19 15 6 5 38 21 30 35 40 42 37 34 33 26 29 26 19 10 10 14 17 18 18 17 15 14 14 15 16 17 17 17 17 17 16
5 2 2 2 8 5 6 6 6 5 23 32 27 16 16 7 8 28 37 27 25 33 36 39 36 34 31 36 31 28 22 11 9 13 15 16 15 14 13 12 12 12 13 14 15 14 14 14 14
3 5 2 7 6 7 8 3 6 4 23 2 11 18 9 6 23 32 21 32 33 31 34 33 34 33 30 33 33 28 20 10 11 13 13 13 12 11 10 10 10 12 12 14 14 14 14 14 14
6 1 5 7 7 9 10 8 10 4 7 10 30 13 11 7 20 15 27 32 30 30 30 29 31 30 29 31 32 24 15 10 9 10 10 9 9 8 9 9 11 10 11 11 13 14 15 15 14
4 4 4 1 6 5 6 5 20 5 4 7 4 7 8 18 14 14 32 27 28 31 28 27 28 30 27 27 23 19 12 9 7 6 5 6 6 8 9 10 11 11 13 14 16 17 19 20 19
4 4 2 4 6 2 6 3 19 6 10 15 19 11 7 10 16 37 31 23 22 27 29 28 28 27 24 23 20 13 9 7 3 3 4 6 9 10 10 10 11 13 15 17 20 22 23 22 21
7 6 3 4 4 1 3 11 15 15 12 9 17 8 13 19 33 32 27 20 22 26 27 28 26 26 25 26 22 15 11 6 2 4 6 8 9 10 11 13 15 17 17 20 22 24 25 25 24
1 7 2 3 3 1 5 4 17 16 7 21 7 12 13 35 39 33 25 18 24 23 23 24 24 20 17 16 14 11 8 6 6 9 11 12 12 13 15 18 19 20 20 22 25 26 27 28 27
2 7 3 4 5 3 3 8 4 11 17 10 10 18 22 43 41 36 30 24 26 21 18 23 22 20 17 15 12 10 7 8 10 12 13 13 14 15 17 19 20 22 23 24 25 27 29 29 29
7 6 11 5 4 4 3 5 14 9 12 13 22 33 43 43 41 40 35 25 23 16 13 20 18 18 17 15 13 10 9 9 12 14 14 14 15 17 19 21 23 25 26 26 26 27 28 31 32
8 9 5 6 6 5 7 10 6 28 3 17 36 48 44 41 39 37 31 20 14 10 9 13 14 14 12 11 8 6 5 7 11 14 15 17 19 20 22 24 25 27 28 28 29 30 31 33 35
7 9 7 7 2 1 4 3 10 7 7 23 42 42 40 39 33 31 28 25 21 16 10 11 11 9 8 8 7 8 6 9 14 14 14 17 19 22 23 25 26 29 32 33 34 35 35 37 38
7 6 2 3 7 13 15 12 16 22 31 42 41 36 31 34 38 30 23 16 20 19 14 12 13 11 8 9 9 10 11 12 12 14 17 19 22 25 29 31 31 30 33 35 36 38 41 42 43
10 10 5 4 7 6 16 11 10 14 41 42 38 38 33 31 33 35 28 23 21 24 24 21 18 13 14 14 16 14 15 15 17 15 17 22 26 27 29 29 31 33 35 38 40 42 43 46 48
9 9 3 5 3 4 17 13 11 9 37 46 42 39 36 31 25 27 19 17 20 21 21 20 20 18 16 13 13 18 17 19 16 17 18 19 20 26 28 30 33 31 36 39 41 42 43 45 45
7 9 9 6 9 11 2 5 19 15 46 46 47 43 39 33 29 23 19 15 16 18 20 21 17 16 16 12 11 15 19 16 23 24 24 22 25 24 22 18 22 22 33 32 36 39 44 45 47
5 9 8 2 14 2 11 8 24 26 51 44 39 38 37 32 25 18 14 13 13 11 12 16 19 18 15 12 6 7 11 8 16 13 13 17 24 24 27 29 28 28 30 30 29 29 32 43 44
16 11 6 10 8 22 26 15 15 29 36 40 35 32 30 29 25 17 12 8 9 12 12 12 12 15 19 15 15 10 9 2 10 7 10 12 17 20 23 27 28 32 31 37 36 37 34 37 44
28 11 16 6 7 16 15 20 13 24 31 28 28 30 29 28 25 20 17 13 11 10 12 14 10 13 26 24 14 13 11 8 6 6 10 14 17 23 26 23 26 31 30 29 29 28 29 34 42
28 34 23 6 14 19 15 15 12 17 12 18 22 25 26 25 24 25 25 22 21 21 19 16 16 20 26 26 16 7 2 4 9 9 12 12 13 11 12 15 17 20 24 28 32 36 38 40 49
15 34 27 22 10 12 9 5 3 7 22 22 20 23 25 24 27 31 31 31 31 31 31 29 28 25 25 21 16 9 6 7 7 5 9 12 13 15 16 19 22 26 30 35 40 43 45 47 45
19 11 25 33 30 7 17 7 11 8 7 9 18 19 23 26 29 34 38 38 39 41 38 37 36 31 27 22 17 15 16 16 18 16 16 15 17 20 23 25 27 31 34 37 41 43 45 46 47
10 18 28 32 22 14 22 6 7 23 12 12 22 27 26 29 31 36 38 40 41 38 39 38 37 34 31 26 22 18 17 18 15 12 13 15 20 24 27 28 31 33 35 37 39 41 44 45 46
13 18 17 10 4 12 24 20 9 21 37 17 32 38 35 34 34 35 36 37 36 34 33 33 30 31 25 20 18 14 13 12 10 12 17 23 27 29 31 34 36 38 39 41 42 42 42 42 43
14 23 6 10 9 9 10 18 11 25 18 35 41 44 46 40 35 35 39 37 35 31 27 25 22 20 19 15 13 14 15 17 20 24 26 29 31 34 35 37 38 39 40 40 41 42 42 44 45
30 25 11 13 11 9 5 15 7 6 29 46 50 54 50 48 43 41 37 33 30 27 22 18 15 14 15 16 17 19 21 22 24 28 30 33 36 38 39 39 39 39 40 41 42 42 43 45 46
13 19 7 10 9 7 7 7 4 7 21 41 52 57 54 49 43 40 36 32 26 21 17 13 11 12 13 17 19 21 23 25 26 28 30 31 33 34 36 37 37 37 38 40 41 43 43 44 44
6 14 5 3 15 9 5 7 8 19 24 26 39 49 55 49 45 41 34 29 24 16 11 9 10 13 16 18 19 22 25 28 30 31 33 33 33 33 34 36 36 36 35 36 38 39 40 41 43
5 9 8 4 2 9 7 11 11 33 34 34 41 50 58 52 47 41 34 26 17 11 8 9 12 15 17 20 23 26 28 29 30 30 31 31 30 29 31 31 31 33 34 35 35 37 38 40 41
8 10 8 5 8 3 1 6 7 20 38 46 43 57 54 48 44 38 32 24 15 5 5 9 13 15 18 21 23 24 25 27 28 28 28 29 29 26 26 28 31 33 35 35 36 37 40 43 46
Wind_Direction_500mb
140 193 211 231 58 67 239 267 311 216 44 63 105 112 106 64 53 169 139 137 153 156 158 157 164 153 151 153 135 148 149 152 113 108 102 98 93 85 79 71 64 58 51 49 45 45 43 42 40
270 299 268 120 90 72 275 256 87 279 136 104 83 79 50 80 64 136 145 143 156 157 158 164 168 165 158 149 141 158 175 172 132 110 100 95 92 87 79 68 57 50 44 39 32 28 28 26 22
298 282 335 98 115 175 199 251 157 122 163 248 106 75 82 75 113 140 147 149 159 158 156 162 170 172 171 160 157 169 173 167 134 112 100 97 91 82 74 61 49 37 28 22 14 8 6 5 4
320 202 54 96 213 241 196 199 153 82 111 96 117 64 79 126 140 150 151 154 159 158 159 161 164 170 171 169 179 187 186 159 132 113 103 89 76 66 51 38 30 19 14 7 360 354 350 346 346
6 71 51 118 259 246 230 202 148 56 50 55 112 124 73 146 177 156 150 155 159 160 161 161 159 159 156 158 161 163 159 147 124 106 92 73 48 31 24 15 6 353 350 345 345 343 339 337 338
77 83 84 237 250 189 278 192 138 151 115 113 100 92 76 128 168 149 143 148 163 167 160 161 161 162 157 160 174 183 173 159 136 97 50 27 15 5 356 351 344 337 337 336 336 336 333 328 328
114 89 204 271 252 69 184 182 144 148 113 59 120 81 131 141 150 147 141 144 159 170 164 163 166 168 173 176 193 204 199 206 304 349 348 347 341 331 329 330 329 331 330 336 337 335 330 329 328
70 99 4 276 263 54 324 101 138 121 105 123 125 160 170 166 160 155 154 156 162 163 168 166 171 176 180 190 198 211 228 253 302 325 330 331 334 334 328 327 329 334 336 334 331 329 329 325 325
175 62 153 246 191 243 144 111 91 119 126 102 102 146 155 164 163 166 171 174 168 169 170 180 179 179 177 184 198 213 240 271 300 321 333 331 336 337 339 339 335 334 332 333 336 333 330 328 325
123 123 220 195 216 204 105 116 132 124 110 68 92 127 152 163 169 174 180 184 177 178 188 186 190 194 195 194 203 222 247 278 299 309 323 331 333 333 332 332 332 330 329 331 330 328 326 325 325
159 183 233 263 236 264 121 133 136 135 90 163 150 145 155 169 179 187 183 187 189 189 194 185 191 199 208 213 213 207 248 303 326 328 322 327 330 329 329 327 328 328 327 325 323 322 323 323 323
140 253 259 326 241 108 58 94 81 4 78 147 140 147 159 164 175 187 190 189 193 211 218 211 207 207 214 227 242 255 269 305 324 319 321 322 328 333 332 327 326 329 327 321 318 316 317 317 319
163 218 330 338 89 107 142 76 89 55 118 129 128 133 145 173 184 193 197 196 210 223 234 251 241 244 260 270 272 282 303 309 306 316 322 324 328 333 330 332 334 336 331 324 320 318 316 316 316
164 202 150 348 41 86 117 73 69 48 124 120 126 128 135 138 159 188 201 208 214 218 225 239 254 263 258 284 293 293 283 292 298 307 316 311 319 323 321 320 320 321 319 323 323 324 323 320 320
165 114 62 56 306 85 115 35 44 345 139 120 120 120 124 129 148 159 169 196 184 193 202 206 227 233 251 271 276 281 299 299 305 296 295 296 299 302 308 313 311 311 310 311 313 313 311 311 310
136 72 138 358 345 42 185 123 351 145 137 113 121 118 118 115 122 129 144 162 185 204 210 213 210 219 224 245 266 262 268 282 274 285 296 267 286 291 301 319 322 320 319 319 317 315 312 314 315
297 167 150 190 24 81 44 96 4 117 124 114 109 113 111 110 114 121 138 158 166 184 210 222 223 216 218 217 222 233 263 262 258 259 258 305 320 313 312 319 323 324 326 329 327 328 324 322 316
197 142 132 144 7 65 80 89 49 70 102 109 108 106 106 108 99 104 125 151 179 201 206 220 213 204 191 199 209 232 262 146 87 17 4 336 337 337 334 329 323 317 317 317 318 323 320 316 310
183 197 105 91 155 71 72 85 66 81 90 86 99 102 96 91 93 106 108 112 126 157 189 204 192 173 173 183 205 222 245 258 304 338 338 324 332 324 310 307 318 320 321 329 335 336 336 334 330
169 191 201 91 69 86 92 71 63 69 71 98 105 98 99 104 105 104 105 106 109 108 110 124 136 145 165 173 164 184 233 285 306 335 315 324 330 330 351 2 0 355 351 347 347 347 346 346 350
191 187 177 182 138 41 112 31 105 63 99 101 100 108 113 111 107 107 109 106 106 107 105 107 116 131 143 138 135 163 197 165 138 89 76 54 32 22 15 8 2 355 350 351 351 349 348 346 345
203 173 151 144 165 177 166 219 235 173 142 123 126 120 121 121 116 111 109 108 104 101 104 106 108 114 122 137 159 162 139 125 86 64 45 29 18 8 1 355 350 347 345 342 344 344 344 341 341
219 142 152 165 160 127 192 205 222 165 197 195 163 146 138 128 124 118 115 110 106 107 108 107 108 109 109 112 111 105 92 80 66 48 22 5 355 351 347 344 344 343 344 344 342 341 343 344 344
146 85 48 54 90 210 184 194 207 191 203 161 166 158 148 139 131 126 120 118 118 112 107 105 105 103 100 95 91 83 70 56 27 6 352 347 345 344 342 342 343 344 343 344 345 345 344 344 343
142 140 132 196 205 218 176 203 246 204 192 177 162 164 155 148 147 140 135 132 123 118 108 100 93 92 83 72 55 38 24 7 353 346 345 340 340 339 342 345 347 348 348 346 344 344 345 345 345
190 175 163 186 183 151 113 210 239 284 173 164 166 162 158 156 159 151 141 133 124 117 110 98 80 63 45 30 20 6 354 348 347 346 345 344 345 345 345 343 342 342 343 343 342 344 345 345 344
175 202 100 89 1 85 184 319 298 108 127 141 151 162 163 161 159 151 145 140 130 123 112 86 62 40 20 9 4 355 349 346 347 345 344 342 340 337 336 336 338 341 343 343 343 345 347 348 347
213 132 144 278 158 193 220 254 227 169 164 157 161 163 165 163 160 156 152 144 135 125 97 58 27 11 3 357 349 347 345 344 342 340 335 333 333 333 333 333 336 339 344 346 346 347 350 349 350
182 165 142 91 316 156 150 245 200 182 178 169 167 166 167 167 164 160 155 147 139 119 70 17 1 358 352 348 346 342 336 332 328 326 325 324 327 328 327 331 337 342 345 347 347 347 349 349 349
158 153 143 183 181 34 57 271 354 187 171 165 164 170 171 171 168 165 161 158 152 123 26 354 348 344 339 335 332 327 327 322 320 320 321 321 322 328 335 339 343 343 344 345 344 344 346 346 345
Wind_Speed_850mb
4 3 3 3 7 9 3 5 5 2 6 14 15 13 19 15 6 5 38 21 30 35 40 42 37 34 33 26 29 26 19 10 10 14 17 18 18 17 15 14 14 15 16 17 17 17 17 17 16
5 2 2 2 8 5 6 6 6 5 23 32 27 16 16 7 8 28 37 27 25 33 36 39 36 34 31 36 31 28 22 11 9 13 15 16 15 14 13 12 12 12 13 14 15 14 14 14 14
3 5 2 7 6 7 8 3 6 4 23 2 11 18 9 6 23 32 21 32 33 31 34 33 34 33 30 33 33 28 20 10 11 13 13 13 12 11 10 10 10 12 12 14 14 14 14 14 14
6 1 5 7 7 9 10 8 10 4 7 10 30 13 11 7 20 15 27 32 30 30 30 29 31 30 29 31 32 24 15 10 9 10 10 9 9 8 9 9 11 10 11 11 13 14 15 15 14
4 4 4 1 6 5 6 5 20 5 4 7 4 7 8 18 14 14 32 27 28 31 28 27 28 30 27 27 23 19 12 9 7 6 5 6 6 8 9 10 11 11 13 14 16 17 19 20 19
4 4 2 4 6 2 6 3 19 6 10 15 19 11 7 10 16 37 31 23 22 27 29 28 28 27 24 23 20 13 9 7 3 3 4 6 9 10 10 10 11 13 15 17 20 22 23 22 21
7 6 3 4 4 1 3 11 15 15 12 9 17 8 13 19 33 32 27 20 22 26 27 28 26 26 25 26 22 15 11 6 2 4 6 8 9 10 11 13 15 17 17 20 22 24 25 25 24
1 7 2 3 3 1 5 4 17 16 7 21 7 12 13 35 39 33 25 18 24 23 23 24 24 20 17 16 14 11 8 6 6 9 11 12 12 13 15 18 19 20 20 22 25 26 27 28 27
2 7 3 4 5 3 3 8 4 11 17 10 10 18 22 43 41 36 30 24 26 21 18 23 22 20 17 15 12 10 7 8 10 12 13 13 14 15 17 19 20 22 23 24 25 27 29 29 29
7 6 11 5 4 4 3 5 14 9 12 13 22 33 43 43 41 40 35 25 23 16 13 20 18 18 17 15 13 10 9 9 12 14 14 14 15 17 19 21 23 25 26 26 26 27 28 31 32
8 9 5 6 6 5 7 10 6 28 3 17 36 48 44 41 39 37 31 20 14 10 9 13 14 14 12 11 8 6 5 7 11 14 15 17 19 20 22 24 25 27 28 28 29 30 31 33 35
7 9 7 7 2 1 4 3 10 7 7 23 42 42 40 39 33 31 28 25 21 16 10 11 11 9 8 8 7 8 6 9 14 14 14 17 19 22 23 25 26 29 32 33 34 35 35 37 38
7 6 2 3 7 13 15 12 16 22 31 42 41 36 31 34 38 30 23 16 20 19 14 12 13 11 8 9 9 10 11 12 12 14 17 19 22 25 29 31 31 30 33 35 36 38 41 42 43
10 10 5 4 7 6 16 11 10 14 41 42 38 38 33 31 33 35 28 23 21 24 24 21 18 13 14 14 16 14 15 15 17 15 17 22 26 27 29 29 31 33 35 38 40 42 43 46 48
9 9 3 5 3 4 17 13 11 9 37 46 42 39 36 31 25 27 19 17 20 21 21 20 20 18 16 13 13 18 17 19 16 17 18 19 20 26 28 30 33 31 36 39 41 42 43 45 45
7 9 9 6 9 11 2 5 19 15 46 46 47 43 39 33 29 23 19 15 16 18 20 21 17 16 16 12 11 15 19 16 23 24 24 22 25 24 22 18 22 22 33 32 36 39 44 45 47
5 9 8 2 14 2 11 8 24 26 51 44 39 38 37 32 25 18 14 13 13 11 12 16 19 18 15 12 6 7 11 8 16 13 13 17 24 24 27 29 28 28 30 30 29 29 32 43 44
16 11 6 10 8 22 26 15 15 29 36 40 35 32 30 29 25 17 12 8 9 12 12 12 12 15 19 15 15 10 9 2 10 7 10 12 17 20 23 27 28 32 31 37 36 37 34 37 44
28 11 16 6 7 16 15 20 13 24 31 28 28 30 29 28 25 20 17 13 11 10 12 14 10 13 26 24 14 13 11 8 6 6 10 14 17 23 26 23 26 31 30 29 29 28 29 34 42
28 34 23 6 14 19 15 15 12 17 12 18 22 25 26 25 24 25 25 22 21 21 19 16 16 20 26 26 16 7 2 4 9 9 12 12 13 11 12 15 17 20 24 28 32 36 38 40 49
15 34 27 22 10 12 9 5 3 7 22 22 20 23 25 24 27 31 31 31 31 31 31 29 28 25 25 21 16 9 6 7 7 5 9 12 13 15 16 19 22 26 30 35 40 43 45 47 45
19 11 25 33 30 7 17 7 11 8 7 9 18 19 23 26 29 34 38 38 39 41 38 37 36 31 27 22 17 15 16 16 18 16 16 15 17 20 23 25 27 31 34 37 41 43 45 46 47
10 18 28 32 22 14 22 6 7 23 12 12 22 27 26 29 31 36 38 40 41 38 39 38 37 34 31 26 22 18 17 18 15 12 13 15 20 24 27 28 31 33 35 37 39 41 44 45 46
13 18 17 10 4 12 24 20 9 21 37 17 32 38 35 34 34 35 36 37 36 34 33 33 30 31 25 20 18 14 13 12 10 12 17 23 27 29 31 34 36 38 39 41 42 42 42 42 43
14 23 6 10 9 9 10 18 11 25 18 35 41 44 46 40 35 35 39 37 35 31 27 25 22 20 19 15 13 14 15 17 20 24 26 29 31 34 35 37 38 39 40 40 41 42 42 44 45
30 25 11 13 11 9 5 15 7 6 29 46 50 54 50 48 43 41 37 33 30 27 22 18 15 14 15 16 17 19 21 22 24 28 30 33 36 38 39 39 39 39 40 41 42 42 43 45 46
13 19 7 10 9 7 7 7 4 7 21 41 52 57 54 49 43 40 36 32 26 21 17 13 11 12 13 17 19 21 23 25 26 28 30 31 33 34 36 37 37 37 38 40 41 43 43 44 44
6 14 5 3 15 9 5 7 8 19 24 26 39 49 55 49 45 41 34 29 24 16 11 9 10 13 16 18 19 22 25 28 30 31 33 33 33 33 34 36 36 36 35 36 38 39 40 41 43
5 9 8 4 2 9 7 11 11 33 34 34 41 50 58 52 47 41 34 26 17 11 8 9 12 15 17 20 23 26 28 29 30 30 31 31 30 29 31 31 31 33 34 35 35 37 38 40 41
8 10 8 5 8 3 1 6 7 20 38 46 43 57 54 48 44 38 32 24 15 5 5 9 13 15 18 21 23 24 25 27 28 28 28 29 29 26 26 28 31 33 35 35 36 37 40 43 46
Wind_Direction_850mb
140 193 211 231 58 67 239 267 311 216 44 63 105 112 106 64 53 169 139 137 153 156 158 157 164 153 151 153 135 148 149 152 113 108 102 98 93 85 79 71 64 58 51 49 45 45 43 42 40
270 299 268 120 90 72 275 256 87 279 136 104 83 79 50 80 64 136 145 143 156 157 158 164 168 165 158 149 141 158 175 172 132 110 100 95 92 87 79 68 57 50 44 39 32 28 28 26 22
298 282 335 98 115 175 199 251 157 122 163 248 106 75 82 75 113 140 147 149 159 158 156 162 170 172 171 160 157 169 173 167 134 112 100 97 91 82 74 61 49 37 28 22 14 8 6 5 4
320 202 54 96 213 241 196 199 153 82 111 96 117 64 79 126 140 150 151 154 159 158 159 161 164 170 171 169 179 187 186 159 132 113 103 89 76 66 51 38 30 19 14 7 360 354 350 346 346
6 71 51 118 259 246 230 202 148 56 50 55 112 124 73 146 177 156 150 155 159 160 161 161 159 159 156 158 161 163 159 147 124 106 92 73 48 31 24 15 6 353 350 345 345 343 339 337 338
77 83 84 237 250 189 278 192 138 151 115 113 100 92 76 128 168 149 143 148 163 167 160 161 161 162 157 160 174 183 173 159 136 97 50 27 15 5 356 351 344 337 337 336 336 336 333 328 328
114 89 204 271 252 69 184 182 144 148 113 59 120 81 131 141 150 147 141 144 159 170 164 163 166 168 173 176 193 204 199 206 304 349 348 347 341 331 329 330 329 331 330 336 337 335 330 329 328
70 99 4 276 263 54 324 101 138 121 105 123 125 160 170 166 160 155 154 156 162 163 168 166 171 176 180 190 198 211 228 253 302 325 330 331 334 334 328 327 329 334 336 334 331 329 329 325 325
175 62 153 246 191 243 144 111 91 119 126 102 102 146 155 164 163 166 171 174 168 169 170 180 179 179 177 184 198 213 240 271 300 321 333 331 336 337 339 339 335 334 332 333 336 333 330 328 325
123 123 220 195 216 204 105 116 132 124 110 68 92 127 152 163 169 174 180 184 177 178 188 186 190 194 195 194 203 222 247 278 299 309 323 331 333 333 332 332 332 330 329 331 330 328 326 325 325
159 183 233 263 236 264 121 133 136 135 90 163 150 145 155 169 179 187 183 187 189 189 194 185 191 199 208 213 213 207 248 303 326 328 322 327 330 329 329 327 328 328 327 325 323 322 323 323 323
140 253 259 326 241 108 58 94 81 4 78 147 140 147 159 164 175 187 190 189 193 211 218 211 207 207 214 227 242 255 269 305 324 319 321 322 328 333 332 327 326 329 327 321 318 316 317 317 319
163 218 330 338 89 107 142 76 89 55 118 129 128 133 145 173 184 193 197 196 210 223 234 251 241 244 260 270 272 282 303 309 306 316 322 324 328 333 330 332 334 336 331 324 320 318 316 316 316
164 202 150 348 41 86 117 73 69 48 124 120 126 128 135 138 159 188 201 208 214 218 225 239 254 263 258 284 293 293 283 292 298 307 316 311 319 323 321 320 320 321 319 323 323 324 323 320 320
165 114 62 56 306 85 115 35 44 345 139 120 120 120 124 129 148 159 169 196 184 193 202 206 227 233 251 271 276 281 299 299 305 296 295 296 299 302 308 313 311 311 310 311 313 313 311 311 310
136 72 138 358 345 42 185 123 351 145 137 113 121 118 118 115 122 129 144 162 185 204 210 213 210 219 224 245 266 262 268 282 274 285 296 267 286 291 301 319 322 320 319 319 317 315 312 314 315
297 167 150 190 24 81 44 96 4 117 124 114 109 113 111 110 114 121 138 158 166 184 210 222 223 216 218 217 222 233 263 262 258 259 258 305 320 313 312 319 323 324 326 329 327 328 324 322 316
197 142 132 144 7 65 80 89 49 70 102 109 108 106 106 108 99 104 125 151 179 201 206 220 213 204 191 199 209 232 262 146 87 17 4 336 337 337 334 329 323 317 317 317 318 323 320 316 310
183 197 105 91 155 71 72 85 66 81 90 86 99 102 96 91 93 106 108 112 126 157 189 204 192 173 173 183 205 222 245 258 304 338 338 324 332 324 310 307 318 320 321 329 335 336 336 334 330
169 191 201 91 69 86 92 71 63 69 71 98 105 98 99 104 105 104 105 106 109 108 110 124 136 145 165 173 164 184 233 285 306 335 315 324 330 330 351 2 0 355 351 347 347 347 346 346 350
191 187 177 182 138 41 112 31 105 63 99 101 100 108 113 111 107 107 109 106 106 107 105 107 116 131 143 138 135 163 197 165 138 89 76 54 32 22 15 8 2 355 350 351 351 349 348 346 345
203 173 151 144 165 177 166 219 235 173 142 123 126 120 121 121 116 111 109 108 104 101 104 106 108 114 122 137 159 162 139 125 86 64 45 29 18 8 1 355 350 347 345 342 344 344 344 341 341
219 142 152 165 160 127 192 205 222 165 197 195 163 146 138 128 124 118 115 110 106 107 108 107 108 109 109 112 111 105 92 80 66 48 22 5 355 351 347 344 344 343 344 344 342 341 343 344 344
146 85 48 54 90 210 184 194 207 191 203 161 166 158 148 139 131 126 120 118 118 112 107 105 105 103 100 95 91 83 70 56 27 6 352 347 345 344 342 342 343 344 343 344 345 345 344 344 343
142 140 132 196 205 218 176 203 246 204 192 177 162 164 155 148 147 140 135 132 123 118 108 100 93 92 83 72 55 38 24 7 353 346 345 340 340 339 342 345 347 348 348 346 344 344 345 345 345
190 175 163 186 183 151 113 210 239 284 173 164 166 162 158 156 159 151 141 133 124 117 110 98 80 63 45 30 20 6 354 348 347 346 345 344 345 345 345 343 342 342 343 343 342 344 345 345 344
175 202 100 89 1 85 184 319 298 108 127 141 151 162 163 161 159 151 145 140 130 123 112 86 62 40 20 9 4 355 349 346 347 345 344 342 340 337 336 336 338 341 343 343 343 345 347 348 347
213 132 144 278 158 193 220 254 227 169 164 157 161 163 165 163 160 156 152 144 135 125 97 58 27 11 3 357 349 347 345 344 342 340 335 333 333 333 333 333 336 339 344 346 346 347 350 349 350
182 165 142 91 316 156 150 245 200 182 178 169 167 166 167 167 164 160 155 147 139 119 70 17 1 358 352 348 346 342 336 332 328 326 325 324 327 328 327 331 337 342 345 347 347 347 349 349 349
158 153 143 183 181 34 57 271 354 187 171 165 164 170 171 171 168 165 161 158 152 123 26 354 348 344 339 335 332 327 327 322 320 320 321 321 322 328 335 339 343 343 344 345 344 344 346 346 345